Find Starlink 11555

NORAD ID: 62915 Int'l Des: 2025-027 Owner: SPXS Country: US Constellation: starlink operational
別名: STARLINK-11555 [DTC] celestrak
LEOCIRCULAR

現在のビュー

3D地球を読み込み中...

About Starlink 11555

Starlink 11555 (NORAD 62915) is a starlink constellation satellite (v2 mini d2c) launched Feb 8, 2025 by SPXS of US. It operates in LEO, CIRCULAR orbit with a mass of 960.00 kg.

次回通過

Passes for default location (London). Set your location on the main map for personalized predictions.

高度履歴

Loading altitude history...

軌道要素

1 62915U 25027J 26265.31795071 .00139472 00000-0 10706-2 0 9995
2 62915 43.0028 242.7221 0002832 263.0664 96.9882 15.70875501 94110
Epoch: Sep 22, 2026 • Age: 21 hours

現在のステータス

高度 355.9 km
遠地点 / 近地点 N/A
速度 7.70 km/s
衛星直下点 -4.07°S, 3.95°W
打ち上げ日 Feb 8, 2025
運用期間 1.6 years
タイプ internet

技術仕様

分類 Payload
質量 960.00 kg
乾燥質量 910.00 kg
長さ 0.30 m
スパン 29.00 m
形状 ? Box + pan
製造者 SPXS
バスタイプ Starlink V2MD
フェーズステータス In Orbit
所有者/国 SPXS/US

Most Searched